Time,TemperatureF,DewpointF,PressureIn,WindDirection,WindDirectionDegrees,WindSpeedMPH,WindSpeedGustMPH,Humidity,HourlyPrecipIn,Conditions,Clouds,dailyrainin,SoftwareType,DateUTC
2013-09-18 00:01:00,51.8,43.8,30.03,SW,225,0.0,0.0,74,0.00,CLR,,0.00,WeatherDisplay:10.37,2013-09-18 07:01:00,
2013-09-18 00:06:00,51.6,43.6,30.03,SW,225,0.0,0.0,74,0.00,CLR,,0.00,WeatherDisplay:10.37,2013-09-18 07:06:00,
2013-09-18 00:11:00,51.4,43.4,30.03,SW,225,0.0,0.0,74,0.00,CLR,,0.00,WeatherDisplay:10.37,2013-09-18 07:11:00,
2013-09-18 00:16:00,51.4,43.8,30.03,SW,225,0.0,0.0,75,0.00,CLR,,0.00,WeatherDisplay:10.37,2013-09-18 07:16:00,
2013-09-18 00:21:00,51.4,43.4,30.03,SW,225,0.0,0.0,74,0.00,CLR,,0.00,WeatherDisplay:10.37,2013-09-18 07:21:00,
2013-09-18 00:26:00,52.2,44.5,30.03,East,90,0.0,0.0,75,0.00,CLR,,0.00,WeatherDisplay:10.37,2013-09-18 07:26:00,
2013-09-18 00:31:00,52.0,44.3,30.03,East,90,0.0,0.0,75,0.00,CLR,,0.00,WeatherDisplay:10.37,2013-09-18 07:31:00,
2013-09-18 00:36:00,52.0,44.3,30.03,NW,315,1.2,0.0,75,0.00,CLR,,0.00,WeatherDisplay:10.37,2013-09-18 07:36:00,
2013-09-18 00:41:00,52.0,44.3,30.03,SW,225,0.0,0.0,75,0.00,CLR,,0.00,WeatherDisplay:10.37,2013-09-18 07:41:00,
2013-09-18 00:46:00,51.8,44.1,30.03,SW,225,0.0,0.0,75,0.00,CLR,,0.00,WeatherDisplay:10.37,2013-09-18 07:46:00,
2013-09-18 00:51:00,51.6,44.0,30.03,SW,225,0.0,0.0,75,0.00,CLR,,0.00,WeatherDisplay:10.37,2013-09-18 07:51:00,
2013-09-18 00:56:00,52.0,44.3,30.03,West,270,0.0,0.0,75,0.00,CLR,,0.00,WeatherDisplay:10.37,2013-09-18 07:56:00,
2013-09-18 01:01:00,52.2,44.5,30.04,East,90,3.1,3.1,75,0.00,CLR,,0.00,WeatherDisplay:10.37,2013-09-18 08:01:00,
2013-09-18 01:06:00,52.5,44.8,30.04,NW,315,2.3,2.3,75,0.00,CLR,,0.00,WeatherDisplay:10.37,2013-09-18 08:06:00,
2013-09-18 01:11:00,52.9,45.2,30.03,North,0,1.2,0.0,75,0.00,CLR,,0.00,WeatherDisplay:10.37,2013-09-18 08:11:00,
2013-09-18 01:16:00,52.9,45.2,30.04,West,270,1.2,0.0,75,0.00,CLR,,0.00,WeatherDisplay:10.37,2013-09-18 08:16:00,
2013-09-18 01:21:00,52.7,45.0,30.04,West,270,0.0,0.0,75,0.00,CLR,,0.00,WeatherDisplay:10.37,2013-09-18 08:21:00,
2013-09-18 01:26:00,52.7,45.0,30.04,West,270,0.0,0.0,75,0.00,CLR,,0.00,WeatherDisplay:10.37,2013-09-18 08:26:00,
2013-09-18 01:31:00,52.7,45.0,30.04,SW,225,1.2,0.0,75,0.00,CLR,,0.00,WeatherDisplay:10.37,2013-09-18 08:31:00,
2013-09-18 01:36:00,52.5,44.8,30.04,SW,225,1.2,0.0,75,0.00,CLR,,0.00,WeatherDisplay:10.37,2013-09-18 08:36:00,
2013-09-18 01:41:00,52.3,44.6,30.04,SW,225,0.0,0.0,75,0.00,CLR,,0.00,WeatherDisplay:10.37,2013-09-18 08:41:00,
2013-09-18 01:46:00,52.2,44.5,30.05,SW,225,0.0,0.0,75,0.00,CLR,,0.00,WeatherDisplay:10.37,2013-09-18 08:46:00,
2013-09-18 01:51:00,52.2,44.5,30.04,SW,225,0.0,0.0,75,0.00,CLR,,0.00,WeatherDisplay:10.37,2013-09-18 08:51:00,
2013-09-18 01:56:00,52.0,44.3,30.04,West,270,1.2,0.0,75,0.00,CLR,,0.00,WeatherDisplay:10.37,2013-09-18 08:56:00,
2013-09-18 02:01:00,51.8,44.1,30.04,West,270,0.0,0.0,75,0.00,CLR,,0.00,WeatherDisplay:10.37,2013-09-18 09:01:00,
2013-09-18 02:06:00,51.8,44.1,30.05,West,270,0.0,0.0,75,0.00,CLR,,0.00,WeatherDisplay:10.37,2013-09-18 09:06:00,
2013-09-18 02:11:00,51.8,44.1,30.05,NE,45,1.2,0.0,75,0.00,CLR,,0.00,WeatherDisplay:10.37,2013-09-18 09:11:00,
2013-09-18 02:17:00,51.8,44.1,30.05,SE,135,0.0,0.0,75,0.00,CLR,,0.00,WeatherDisplay:10.37,2013-09-18 09:17:00,
2013-09-18 02:22:00,51.8,44.1,30.05,SE,135,0.0,0.0,75,0.00,CLR,,0.00,WeatherDisplay:10.37,2013-09-18 09:22:00,
2013-09-18 02:27:00,51.6,44.0,30.05,SE,135,0.0,0.0,75,0.00,CLR,,0.00,WeatherDisplay:10.37,2013-09-18 09:27:00,
2013-09-18 02:32:00,51.8,44.1,30.05,West,270,0.0,0.0,75,0.00,CLR,,0.00,WeatherDisplay:10.37,2013-09-18 09:32:00,
2013-09-18 02:37:00,52.0,44.6,30.05,West,270,0.0,0.0,76,0.00,CLR,,0.00,WeatherDisplay:10.37,2013-09-18 09:37:00,
2013-09-18 02:42:00,52.2,44.8,30.06,South,180,0.0,0.0,76,0.00,CLR,,0.00,WeatherDisplay:10.37,2013-09-18 09:42:00,
2013-09-18 02:47:00,52.2,44.8,30.05,South,180,0.0,0.0,76,0.00,CLR,,0.00,WeatherDisplay:10.37,2013-09-18 09:47:00,
2013-09-18 02:52:00,52.2,44.8,30.05,South,180,0.0,0.0,76,0.00,CLR,,0.00,WeatherDisplay:10.37,2013-09-18 09:52:00,
2013-09-18 02:57:00,52.2,44.8,30.05,SW,225,1.2,0.0,76,0.00,CLR,,0.00,WeatherDisplay:10.37,2013-09-18 09:57:00,
2013-09-18 03:02:00,52.2,44.8,30.05,South,180,1.2,0.0,76,0.00,CLR,,0.00,WeatherDisplay:10.37,2013-09-18 10:02:00,
2013-09-18 03:07:00,52.2,44.8,30.06,West,270,1.2,0.0,76,0.00,CLR,,0.00,WeatherDisplay:10.37,2013-09-18 10:07:00,
2013-09-18 03:12:00,52.2,44.8,30.05,NW,315,1.2,0.0,76,0.00,CLR,,0.00,WeatherDisplay:10.37,2013-09-18 10:12:00,
2013-09-18 03:17:00,52.3,45.0,30.05,NE,45,1.2,0.0,76,0.00,CLR,,0.00,WeatherDisplay:10.37,2013-09-18 10:17:00,
2013-09-18 03:22:00,52.5,45.9,30.05,South,180,1.2,0.0,78,0.00,CLR,,0.00,WeatherDisplay:10.37,2013-09-18 10:22:00,
2013-09-18 03:27:00,52.5,45.9,30.05,South,180,0.0,0.0,78,0.00,CLR,,0.00,WeatherDisplay:10.37,2013-09-18 10:27:00,
2013-09-18 03:32:00,52.5,45.9,30.04,South,180,0.0,0.0,78,0.00,CLR,,0.00,WeatherDisplay:10.37,2013-09-18 10:32:00,
2013-09-18 03:37:00,52.5,45.9,30.04,West,270,0.0,0.0,78,0.00,CLR,,0.00,WeatherDisplay:10.37,2013-09-18 10:37:00,
2013-09-18 03:42:00,52.7,46.0,30.04,West,270,1.2,0.0,78,0.00,CLR,,0.00,WeatherDisplay:10.37,2013-09-18 10:42:00,
2013-09-18 03:47:00,52.9,46.2,30.05,West,270,1.2,0.0,78,0.00,CLR,,0.00,WeatherDisplay:10.37,2013-09-18 10:47:00,
2013-09-18 03:52:00,52.9,45.9,30.04,South,180,1.2,0.0,77,0.00,CLR,,0.00,WeatherDisplay:10.37,2013-09-18 10:52:00,
2013-09-18 03:57:00,52.7,45.7,30.04,South,180,1.2,0.0,77,0.00,CLR,,0.00,WeatherDisplay:10.37,2013-09-18 10:57:00,
2013-09-18 04:02:00,52.5,45.5,30.05,South,180,0.0,0.0,77,0.00,CLR,,0.00,WeatherDisplay:10.37,2013-09-18 11:02:00,
2013-09-18 04:08:00,52.7,45.3,30.05,South,180,0.0,0.0,76,0.00,CLR,,0.00,WeatherDisplay:10.37,2013-09-18 11:08:00,
2013-09-18 04:13:00,52.7,45.3,30.05,SW,225,0.0,0.0,76,0.00,CLR,,0.00,WeatherDisplay:10.37,2013-09-18 11:13:00,
2013-09-18 04:18:00,52.5,45.2,30.05,SW,225,1.2,0.0,76,0.00,CLR,,0.00,WeatherDisplay:10.37,2013-09-18 11:18:00,
2013-09-18 04:23:00,52.5,45.2,30.05,SW,225,0.0,0.0,76,0.00,CLR,,0.00,WeatherDisplay:10.37,2013-09-18 11:23:00,
2013-09-18 04:28:00,52.5,45.2,30.06,SW,225,1.2,0.0,76,0.00,CLR,,0.00,WeatherDisplay:10.37,2013-09-18 11:28:00,
2013-09-18 04:33:00,52.5,45.2,30.05,West,270,1.2,0.0,76,0.00,CLR,,0.00,WeatherDisplay:10.37,2013-09-18 11:33:00,
2013-09-18 04:38:00,52.7,45.3,30.06,SW,225,0.0,0.0,76,0.00,CLR,,0.00,WeatherDisplay:10.37,2013-09-18 11:38:00,
2013-09-18 04:43:00,52.7,45.3,30.06,South,180,1.2,0.0,76,0.00,CLR,,0.00,WeatherDisplay:10.37,2013-09-18 11:43:00,
2013-09-18 04:48:00,52.7,45.3,30.05,South,180,0.0,0.0,76,0.00,CLR,,0.00,WeatherDisplay:10.37,2013-09-18 11:48:00,
2013-09-18 04:53:00,52.5,45.2,30.06,South,180,1.2,0.0,76,0.00,CLR,,0.00,WeatherDisplay:10.37,2013-09-18 11:53:00,
2013-09-18 04:58:00,52.3,45.0,30.06,SW,225,0.0,0.0,76,0.00,CLR,,0.00,WeatherDisplay:10.37,2013-09-18 11:58:00,
2013-09-18 05:03:00,52.2,44.8,30.05,West,270,0.0,0.0,76,0.00,CLR,,0.00,WeatherDisplay:10.37,2013-09-18 12:03:00,
2013-09-18 05:08:00,52.0,44.6,30.05,West,270,0.0,0.0,76,0.00,CLR,,0.00,WeatherDisplay:10.37,2013-09-18 12:08:00,
2013-09-18 05:13:00,52.0,44.6,30.06,West,270,0.0,0.0,76,0.00,CLR,,0.00,WeatherDisplay:10.37,2013-09-18 12:13:00,
2013-09-18 05:18:00,52.0,45.0,30.06,SW,225,1.2,0.0,77,0.00,CLR,,0.00,WeatherDisplay:10.37,2013-09-18 12:18:00,
2013-09-18 05:23:00,52.2,45.2,30.06,West,270,0.0,0.0,77,0.00,CLR,,0.00,WeatherDisplay:10.37,2013-09-18 12:23:00,
2013-09-18 05:28:00,52.3,45.7,30.06,West,270,0.0,0.0,78,0.00,CLR,,0.00,WeatherDisplay:10.37,2013-09-18 12:28:00,
2013-09-18 05:33:00,52.3,45.7,30.05,SW,225,0.0,0.0,78,0.00,CLR,,0.00,WeatherDisplay:10.37,2013-09-18 12:33:00,
2013-09-18 05:38:00,52.5,46.2,30.05,South,180,0.0,0.0,79,0.00,CLR,,0.00,WeatherDisplay:10.37,2013-09-18 12:38:00,
2013-09-18 05:43:00,52.7,45.7,30.05,West,270,0.0,0.0,77,0.00,CLR,,0.00,WeatherDisplay:10.37,2013-09-18 12:43:00,
2013-09-18 05:48:00,52.7,45.3,30.05,West,270,1.2,0.0,76,0.00,CLR,,0.00,WeatherDisplay:10.37,2013-09-18 12:48:00,
2013-09-18 05:53:00,52.9,45.5,30.05,West,270,0.0,0.0,76,0.00,CLR,,0.00,WeatherDisplay:10.37,2013-09-18 12:53:00,
2013-09-18 05:58:00,53.1,45.7,30.05,West,270,0.0,0.0,76,0.00,CLR,,0.00,WeatherDisplay:10.37,2013-09-18 12:58:00,
2013-09-18 06:03:00,52.9,45.5,30.05,South,180,0.0,0.0,76,0.00,CLR,,0.00,WeatherDisplay:10.37,2013-09-18 13:03:00,
2013-09-18 06:08:00,53.1,45.7,30.05,South,180,0.0,0.0,76,0.00,CLR,,0.00,WeatherDisplay:10.37,2013-09-18 13:08:00,
2013-09-18 06:13:00,53.1,45.7,30.05,South,180,0.0,0.0,76,0.00,CLR,,0.00,WeatherDisplay:10.37,2013-09-18 13:13:00,
2013-09-18 06:18:00,53.2,45.9,30.05,South,180,0.0,0.0,76,0.00,CLR,,0.00,WeatherDisplay:10.37,2013-09-18 13:18:00,
2013-09-18 06:23:00,53.2,45.9,30.05,South,180,0.0,0.0,76,0.00,CLR,,0.00,WeatherDisplay:10.37,2013-09-18 13:23:00,
2013-09-18 06:29:00,53.1,45.7,30.05,South,180,0.0,0.0,76,0.00,CLR,,0.00,WeatherDisplay:10.37,2013-09-18 13:29:00,
2013-09-18 06:34:00,53.1,45.7,30.05,SW,225,1.2,0.0,76,0.00,CLR,,0.00,WeatherDisplay:10.37,2013-09-18 13:34:00,
2013-09-18 06:39:00,52.9,45.5,30.05,SW,225,0.0,0.0,76,0.00,CLR,,0.00,WeatherDisplay:10.37,2013-09-18 13:39:00,
2013-09-18 06:44:00,52.7,45.3,30.05,SW,225,1.2,0.0,76,0.00,CLR,,0.00,WeatherDisplay:10.37,2013-09-18 13:44:00,
2013-09-18 06:49:00,52.7,45.3,30.04,SW,225,0.0,0.0,76,0.00,CLR,,0.00,WeatherDisplay:10.37,2013-09-18 13:49:00,
2013-09-18 06:54:00,52.5,45.2,30.05,SW,225,1.2,0.0,76,0.00,CLR,,0.00,WeatherDisplay:10.37,2013-09-18 13:54:00,
2013-09-18 06:59:00,52.5,45.2,30.05,SW,225,0.0,0.0,76,0.00,CLR,,0.00,WeatherDisplay:10.37,2013-09-18 13:59:00,
2013-09-18 07:04:00,52.5,45.2,30.06,SW,225,0.0,0.0,76,0.00,CLR,,0.00,WeatherDisplay:10.37,2013-09-18 14:04:00,
2013-09-18 07:09:00,52.7,45.3,30.06,East,90,1.2,0.0,76,0.00,CLR,,0.00,WeatherDisplay:10.37,2013-09-18 14:09:00,
2013-09-18 07:14:00,53.1,45.7,30.05,East,90,0.0,0.0,76,0.00,CLR,,0.00,WeatherDisplay:10.37,2013-09-18 14:14:00,
2013-09-18 07:19:00,53.1,45.7,30.05,South,180,1.2,0.0,76,0.00,CLR,,0.00,WeatherDisplay:10.37,2013-09-18 14:19:00,
2013-09-18 07:24:00,53.1,45.7,30.06,South,180,1.2,1.2,76,0.00,CLR,,0.00,WeatherDisplay:10.37,2013-09-18 14:24:00,
2013-09-18 07:29:00,53.1,45.7,30.06,South,180,1.2,0.0,76,0.00,CLR,,0.00,WeatherDisplay:10.37,2013-09-18 14:29:00,
2013-09-18 07:34:00,52.9,45.5,30.06,SW,225,1.2,0.0,76,0.00,CLR,,0.00,WeatherDisplay:10.37,2013-09-18 14:34:00,
2013-09-18 07:39:00,52.9,45.5,30.06,SW,225,1.2,0.0,76,0.00,CLR,,0.00,WeatherDisplay:10.37,2013-09-18 14:39:00,
2013-09-18 07:44:00,53.1,45.7,30.06,West,270,1.2,0.0,76,0.00,CLR,,0.00,WeatherDisplay:10.37,2013-09-18 14:44:00,
2013-09-18 07:49:00,53.2,45.9,30.06,South,180,1.2,0.0,76,0.00,CLR,,0.00,WeatherDisplay:10.37,2013-09-18 14:49:00,
2013-09-18 07:54:00,53.4,46.0,30.06,South,180,1.2,0.0,76,0.00,CLR,,0.00,WeatherDisplay:10.37,2013-09-18 14:54:00,
2013-09-18 07:59:00,53.6,46.2,30.06,East,90,1.2,0.0,76,0.00,CLR,,0.00,WeatherDisplay:10.37,2013-09-18 14:59:00,
2013-09-18 08:04:00,53.8,46.4,30.06,South,180,2.3,0.0,76,0.00,CLR,,0.00,WeatherDisplay:10.37,2013-09-18 15:04:00,
2013-09-18 08:09:00,53.8,46.4,30.06,South,180,2.3,0.0,76,0.00,CLR,,0.00,WeatherDisplay:10.37,2013-09-18 15:09:00,
2013-09-18 08:14:00,54.0,46.6,30.06,South,180,3.1,3.1,76,0.00,CLR,,0.00,WeatherDisplay:10.37,2013-09-18 15:14:00,
2013-09-18 08:19:00,54.0,46.6,30.05,South,180,4.6,4.6,76,0.00,CLR,,0.00,WeatherDisplay:10.37,2013-09-18 15:19:00,
2013-09-18 08:24:00,54.1,46.7,30.05,SW,225,1.2,0.0,76,0.00,CLR,,0.00,WeatherDisplay:10.37,2013-09-18 15:24:00,
2013-09-18 08:30:00,54.5,47.1,30.05,SW,225,0.0,0.0,76,0.00,CLR,,0.00,WeatherDisplay:10.37,2013-09-18 15:30:00,
2013-09-18 08:35:00,54.9,47.4,30.05,West,270,0.0,0.0,76,0.00,CLR,,0.00,WeatherDisplay:10.37,2013-09-18 15:35:00,
2013-09-18 08:40:00,55.0,47.6,30.05,South,180,0.0,0.0,76,0.00,CLR,,0.00,WeatherDisplay:10.37,2013-09-18 15:40:00,
2013-09-18 08:45:00,55.6,48.1,30.05,South,180,1.2,1.2,76,0.00,CLR,,0.00,WeatherDisplay:10.37,2013-09-18 15:45:00,
2013-09-18 08:50:00,55.9,48.5,30.05,South,180,2.3,0.0,76,0.00,CLR,,0.00,WeatherDisplay:10.37,2013-09-18 15:50:00,
2013-09-18 08:55:00,56.1,48.7,30.05,South,180,1.2,0.0,76,0.00,CLR,,0.00,WeatherDisplay:10.37,2013-09-18 15:55:00,
2013-09-18 09:00:00,56.7,49.2,30.05,East,90,1.2,0.0,76,0.00,CLR,,0.00,WeatherDisplay:10.37,2013-09-18 16:00:00,
2013-09-18 09:01:00,56.7,49.2,30.04,SSE,158,1.2,0.0,76,0.00,CLR,,0.00,WeatherDisplay:10.37,2013-09-18 16:01:00,
2013-09-18 09:06:00,57.2,49.7,30.05,West,270,0.0,0.0,76,0.00,CLR,,0.00,WeatherDisplay:10.37,2013-09-18 16:06:00,
2013-09-18 09:11:00,57.6,50.4,30.05,West,270,1.2,0.0,77,0.00,CLR,,0.00,WeatherDisplay:10.37,2013-09-18 16:11:00,
2013-09-18 09:16:00,57.6,50.0,30.05,West,270,1.2,0.0,76,0.00,CLR,,0.00,WeatherDisplay:10.37,2013-09-18 16:16:00,
2013-09-18 09:21:00,57.9,50.4,30.05,West,270,2.3,0.0,76,0.00,CLR,,0.00,WeatherDisplay:10.37,2013-09-18 16:21:00,
2013-09-18 09:26:00,58.3,50.7,30.05,South,180,2.3,0.0,76,0.00,CLR,,0.00,WeatherDisplay:10.37,2013-09-18 16:26:00,
2013-09-18 09:31:00,59.0,52.1,30.05,NE,45,1.2,0.0,78,0.00,CLR,,0.00,WeatherDisplay:10.37,2013-09-18 16:31:00,
2013-09-18 09:36:00,59.4,51.1,30.05,SW,225,2.3,2.3,74,0.00,CLR,,0.00,WeatherDisplay:10.37,2013-09-18 16:36:00,
2013-09-18 09:41:00,59.9,51.2,30.05,SW,225,2.3,2.3,73,0.00,CLR,,0.00,WeatherDisplay:10.37,2013-09-18 16:41:00,
2013-09-18 09:46:00,60.8,51.7,30.06,SW,225,2.3,2.3,72,0.00,CLR,,0.00,WeatherDisplay:10.37,2013-09-18 16:46:00,
2013-09-18 09:51:00,61.7,52.6,30.06,North,0,2.3,2.3,72,0.00,CLR,,0.00,WeatherDisplay:10.37,2013-09-18 16:51:00,
2013-09-18 09:56:00,61.5,49.6,30.06,SW,225,3.5,3.5,65,0.00,CLR,,0.00,WeatherDisplay:10.37,2013-09-18 16:56:00,
2013-09-18 10:01:00,62.4,50.9,30.06,SW,225,3.5,3.5,66,0.00,CLR,,0.00,WeatherDisplay:10.37,2013-09-18 17:01:00,
2013-09-18 10:06:00,64.2,50.0,30.06,South,180,3.5,3.5,60,0.00,CLR,,0.00,WeatherDisplay:10.37,2013-09-18 17:06:00,
2013-09-18 10:11:00,64.9,47.9,30.06,SW,225,4.6,4.6,54,0.00,CLR,,0.00,WeatherDisplay:10.37,2013-09-18 17:11:00,
2013-09-18 10:16:00,64.2,48.7,30.06,SW,225,2.3,2.3,57,0.00,CLR,,0.00,WeatherDisplay:10.37,2013-09-18 17:16:00,
2013-09-18 10:21:00,63.7,49.1,30.06,SW,225,2.3,2.3,59,0.00,CLR,,0.00,WeatherDisplay:10.37,2013-09-18 17:21:00,
2013-09-18 10:26:00,63.5,48.5,30.06,South,180,2.3,2.3,58,0.00,CLR,,0.00,WeatherDisplay:10.37,2013-09-18 17:26:00,
2013-09-18 10:31:00,63.1,49.5,30.06,SE,135,3.5,3.5,61,0.00,CLR,,0.00,WeatherDisplay:10.37,2013-09-18 17:31:00,
2013-09-18 10:36:00,63.1,49.5,30.06,North,0,1.2,1.2,61,0.00,CLR,,0.00,WeatherDisplay:10.37,2013-09-18 17:36:00,
2013-09-18 10:41:00,63.7,50.0,30.06,South,180,1.2,0.0,61,0.00,CLR,,0.00,WeatherDisplay:10.37,2013-09-18 17:41:00,
2013-09-18 10:46:00,63.9,48.3,30.06,East,90,3.5,3.5,57,0.00,CLR,,0.00,WeatherDisplay:10.37,2013-09-18 17:46:00,
2013-09-18 10:52:00,64.0,49.0,30.05,NE,45,3.5,3.5,58,0.00,CLR,,0.00,WeatherDisplay:10.37,2013-09-18 17:52:00,
2013-09-18 10:57:00,64.4,48.8,30.05,NW,315,3.5,0.0,57,0.00,CLR,,0.00,WeatherDisplay:10.37,2013-09-18 17:57:00,
2013-09-18 11:02:00,65.1,48.5,30.05,West,270,2.2,2.2,55,0.00,CLR,,0.00,WeatherDisplay:10.37,2013-09-18 18:02:00,
2013-09-18 11:07:00,65.7,48.1,30.05,East,90,3.5,3.5,53,0.00,CLR,,0.00,WeatherDisplay:10.37,2013-09-18 18:07:00,
2013-09-18 11:12:00,66.0,47.9,30.05,North,0,2.3,0.0,52,0.00,CLR,,0.00,WeatherDisplay:10.37,2013-09-18 18:12:00,
2013-09-18 11:17:00,67.6,46.7,30.05,East,90,3.5,3.5,47,0.00,CLR,,0.00,WeatherDisplay:10.37,2013-09-18 18:17:00,
2013-09-18 11:22:00,69.1,46.8,30.05,North,0,3.8,3.8,45,0.00,CLR,,0.00,WeatherDisplay:10.37,2013-09-18 18:22:00,
2013-09-18 11:27:00,71.8,44.8,30.04,East,90,3.5,3.5,38,0.00,CLR,,0.00,WeatherDisplay:10.37,2013-09-18 18:27:00,
2013-09-18 11:32:00,72.7,44.2,30.04,East,90,3.5,3.5,36,0.00,CLR,,0.00,WeatherDisplay:10.37,2013-09-18 18:32:00,
2013-09-18 11:37:00,74.3,44.1,30.03,North,0,3.5,3.5,34,0.00,CLR,,0.00,WeatherDisplay:10.37,2013-09-18 18:37:00,
2013-09-18 11:42:00,76.3,44.2,30.03,NE,45,2.3,2.3,32,0.00,CLR,,0.00,WeatherDisplay:10.37,2013-09-18 18:42:00,
2013-09-18 11:47:00,77.7,43.8,30.02,NE,45,4.6,4.6,30,0.00,CLR,,0.00,WeatherDisplay:10.37,2013-09-18 18:47:00,
2013-09-18 11:52:00,78.3,39.5,30.02,East,90,3.5,3.5,25,0.00,CLR,,0.00,WeatherDisplay:10.37,2013-09-18 18:52:00,
2013-09-18 11:57:00,78.4,38.6,30.02,West,270,3.5,0.0,24,0.00,CLR,,0.00,WeatherDisplay:10.37,2013-09-18 18:57:00,
2013-09-18 12:02:00,78.8,36.7,30.03,NE,45,2.3,0.0,22,0.00,CLR,,0.00,WeatherDisplay:10.37,2013-09-18 19:02:00,
2013-09-18 12:07:00,78.6,38.8,30.02,SW,225,3.5,0.0,24,0.00,CLR,,0.00,WeatherDisplay:10.37,2013-09-18 19:07:00,
2013-09-18 12:13:00,78.3,31.3,30.02,SE,135,3.5,3.5,18,0.00,CLR,,0.00,WeatherDisplay:10.37,2013-09-18 19:13:00,
2013-09-18 12:18:00,78.3,35.1,30.02,NE,45,5.8,5.8,21,0.00,CLR,,0.00,WeatherDisplay:10.37,2013-09-18 19:18:00,
2013-09-18 12:23:00,78.6,35.4,30.01,North,0,4.6,4.6,21,0.00,CLR,,0.00,WeatherDisplay:10.37,2013-09-18 19:23:00,
2013-09-18 12:28:00,79.5,38.5,30.01,West,270,3.5,3.5,23,0.00,CLR,,0.00,WeatherDisplay:10.37,2013-09-18 19:28:00,
2013-09-18 12:33:00,79.3,38.3,30.01,NE,45,4.6,4.6,23,0.00,CLR,,0.00,WeatherDisplay:10.37,2013-09-18 19:33:00,
2013-09-18 12:38:00,79.5,37.3,30.01,North,0,5.8,5.8,22,0.00,CLR,,0.00,WeatherDisplay:10.37,2013-09-18 19:38:00,
2013-09-18 12:44:00,78.6,39.8,30.00,North,0,8.1,8.1,25,0.00,CLR,,0.00,WeatherDisplay:10.37,2013-09-18 19:44:00,
2013-09-18 12:49:00,78.4,39.7,30.00,NW,315,8.1,8.1,25,0.00,CLR,,0.00,WeatherDisplay:10.37,2013-09-18 19:49:00,
2013-09-18 12:54:00,78.1,38.3,30.00,NE,45,5.8,0.0,24,0.00,CLR,,0.00,WeatherDisplay:10.37,2013-09-18 19:54:00,
2013-09-18 12:59:00,77.2,39.6,30.00,North,0,8.1,8.1,26,0.00,CLR,,0.00,WeatherDisplay:10.37,2013-09-18 19:59:00,
2013-09-18 13:04:00,77.4,37.7,30.00,NW,315,10.4,10.4,24,0.00,CLR,,0.00,WeatherDisplay:10.37,2013-09-18 20:04:00,
2013-09-18 13:09:00,76.3,39.8,30.00,West,270,12.7,12.7,27,0.00,CLR,,0.00,WeatherDisplay:10.37,2013-09-18 20:09:00,
2013-09-18 13:14:00,76.5,39.0,30.00,NW,315,6.9,6.9,26,0.00,CLR,,0.00,WeatherDisplay:10.37,2013-09-18 20:14:00,
2013-09-18 13:19:00,75.7,41.2,30.00,West,270,4.6,4.6,29,0.00,CLR,,0.00,WeatherDisplay:10.37,2013-09-18 20:19:00,
2013-09-18 13:24:00,76.6,40.1,30.00,South,180,7.6,7.6,27,0.00,CLR,,0.00,WeatherDisplay:10.37,2013-09-18 20:24:00,
2013-09-18 13:29:00,75.7,39.4,30.00,West,270,10.4,10.4,27,0.00,CLR,,0.00,WeatherDisplay:10.37,2013-09-18 20:29:00,
2013-09-18 13:34:00,75.0,39.7,29.99,North,0,10.4,10.4,28,0.00,CLR,,0.00,WeatherDisplay:10.37,2013-09-18 20:34:00,
2013-09-18 13:39:00,74.8,40.4,29.99,North,0,15.0,15.0,29,0.00,CLR,,0.00,WeatherDisplay:10.37,2013-09-18 20:39:00,
2013-09-18 13:44:00,75.2,39.8,29.99,North,0,6.9,6.9,28,0.00,CLR,,0.00,WeatherDisplay:10.37,2013-09-18 20:44:00,
2013-09-18 13:49:00,75.9,42.2,29.98,NW,315,6.9,6.9,30,0.00,CLR,,0.00,WeatherDisplay:10.37,2013-09-18 20:49:00,
2013-09-18 13:54:00,75.9,41.4,29.99,North,0,8.1,8.1,29,0.00,CLR,,0.00,WeatherDisplay:10.37,2013-09-18 20:54:00,
2013-09-18 13:59:00,76.1,40.6,29.99,SW,225,6.9,6.9,28,0.00,CLR,,0.00,WeatherDisplay:10.37,2013-09-18 20:59:00,
2013-09-18 14:04:00,76.3,41.7,29.98,West,270,6.9,6.9,29,0.00,CLR,,0.00,WeatherDisplay:10.37,2013-09-18 21:04:00,
2013-09-18 14:09:00,77.4,39.8,29.98,WNW,292,8.1,8.1,26,0.00,CLR,,0.00,WeatherDisplay:10.37,2013-09-18 21:09:00,
2013-09-18 14:15:00,77.2,39.6,29.98,North,0,10.4,10.4,26,0.00,CLR,,0.00,WeatherDisplay:10.37,2013-09-18 21:15:00,
2013-09-18 14:20:00,76.6,40.1,29.98,West,270,10.4,10.4,27,0.00,CLR,,0.00,WeatherDisplay:10.37,2013-09-18 21:20:00,
2013-09-18 14:25:00,76.6,41.1,29.98,West,270,8.1,8.1,28,0.00,CLR,,0.00,WeatherDisplay:10.37,2013-09-18 21:25:00,
2013-09-18 14:30:00,77.2,40.6,29.99,East,90,8.1,0.0,27,0.00,CLR,,0.00,WeatherDisplay:10.37,2013-09-18 21:30:00,
2013-09-18 14:35:00,76.5,38.0,29.98,NW,315,9.2,9.2,25,0.00,CLR,,0.00,WeatherDisplay:10.37,2013-09-18 21:35:00,
2013-09-18 14:40:00,75.7,40.3,29.98,NE,45,8.1,8.1,28,0.00,CLR,,0.00,WeatherDisplay:10.37,2013-09-18 21:40:00,
2013-09-18 14:45:00,75.0,40.6,29.98,NE,45,9.2,9.2,29,0.00,CLR,,0.00,WeatherDisplay:10.37,2013-09-18 21:45:00,
2013-09-18 14:51:00,74.1,42.4,29.98,NW,315,13.8,13.8,32,0.00,CLR,,0.00,WeatherDisplay:10.37,2013-09-18 21:51:00,
2013-09-18 14:56:00,73.8,42.9,29.98,West,270,6.9,6.9,33,0.00,CLR,,0.00,WeatherDisplay:10.37,2013-09-18 21:56:00,
2013-09-18 15:01:00,73.8,42.9,29.98,WNW,292,11.5,11.5,33,0.00,CLR,,0.00,WeatherDisplay:10.37,2013-09-18 22:01:00,
2013-09-18 15:06:00,73.2,43.2,29.98,West,270,11.5,11.5,34,0.00,CLR,,0.00,WeatherDisplay:10.37,2013-09-18 22:06:00,
2013-09-18 15:11:00,73.2,43.2,29.98,West,270,5.8,5.8,34,0.00,CLR,,0.00,WeatherDisplay:10.37,2013-09-18 22:11:00,
2013-09-18 15:16:00,73.2,43.2,29.97,NW,315,8.1,8.1,34,0.00,CLR,,0.00,WeatherDisplay:10.37,2013-09-18 22:16:00,
2013-09-18 15:22:00,71.4,43.1,29.98,NW,315,3.5,3.5,36,0.00,CLR,,0.00,WeatherDisplay:10.37,2013-09-18 22:22:00,
2013-09-18 15:27:00,70.9,44.0,29.98,North,0,8.3,8.3,38,0.00,CLR,,0.00,WeatherDisplay:10.37,2013-09-18 22:27:00,
2013-09-18 15:32:00,70.2,43.4,29.97,NW,315,5.8,5.8,38,0.00,CLR,,0.00,WeatherDisplay:10.37,2013-09-18 22:32:00,
2013-09-18 15:37:00,69.8,44.4,29.97,South,180,8.1,8.1,40,0.00,CLR,,0.00,WeatherDisplay:10.37,2013-09-18 22:37:00,
2013-09-18 15:42:00,69.4,44.1,29.97,West,270,9.2,9.2,40,0.00,CLR,,0.00,WeatherDisplay:10.37,2013-09-18 22:42:00,
2013-09-18 15:47:00,69.1,44.4,29.97,SW,225,10.4,10.4,41,0.00,CLR,,0.00,WeatherDisplay:10.37,2013-09-18 22:47:00,
2013-09-18 15:52:00,69.1,45.0,29.97,West,270,2.3,2.3,42,0.00,CLR,,0.00,WeatherDisplay:10.37,2013-09-18 22:52:00,
2013-09-18 15:57:00,68.9,44.2,29.97,NE,45,10.4,10.4,41,0.00,CLR,,0.00,WeatherDisplay:10.37,2013-09-18 22:57:00,
2013-09-18 16:02:00,68.7,44.1,29.97,North,0,3.5,3.5,41,0.00,CLR,,0.00,WeatherDisplay:10.37,2013-09-18 23:02:00,
2013-09-18 16:07:00,68.7,44.7,29.97,West,270,9.2,9.2,42,0.00,CLR,,0.00,WeatherDisplay:10.37,2013-09-18 23:07:00,
2013-09-18 16:12:00,68.7,44.7,29.97,NW,315,8.1,8.1,42,0.00,CLR,,0.00,WeatherDisplay:10.37,2013-09-18 23:12:00,
2013-09-18 16:17:00,68.5,44.5,29.97,West,270,5.8,5.8,42,0.00,CLR,,0.00,WeatherDisplay:10.37,2013-09-18 23:17:00,
2013-09-18 16:22:00,68.7,44.7,29.97,West,270,6.9,6.9,42,0.00,CLR,,0.00,WeatherDisplay:10.37,2013-09-18 23:22:00,
2013-09-18 16:27:00,68.7,44.7,29.97,East,90,4.6,4.6,42,0.00,CLR,,0.00,WeatherDisplay:10.37,2013-09-18 23:27:00,
2013-09-18 16:32:00,68.7,44.7,29.97,NE,45,6.9,6.9,42,0.00,CLR,,0.00,WeatherDisplay:10.37,2013-09-18 23:32:00,
2013-09-18 16:37:00,68.5,43.9,29.96,NW,315,8.1,8.1,41,0.00,CLR,,0.00,WeatherDisplay:10.37,2013-09-18 23:37:00,
2013-09-18 16:43:00,68.2,43.6,29.96,North,0,8.1,8.1,41,0.00,CLR,,0.00,WeatherDisplay:10.37,2013-09-18 23:43:00,
2013-09-18 16:48:00,68.0,43.4,29.96,NW,315,10.4,10.4,41,0.00,CLR,,0.00,WeatherDisplay:10.37,2013-09-18 23:48:00,
2013-09-18 16:53:00,67.8,43.9,29.96,West,270,5.8,5.8,42,0.00,CLR,,0.00,WeatherDisplay:10.37,2013-09-18 23:53:00,
2013-09-18 16:58:00,67.6,43.7,29.96,NE,45,5.8,5.8,42,0.00,CLR,,0.00,WeatherDisplay:10.37,2013-09-18 23:58:00,
2013-09-18 17:03:00,67.5,44.2,29.96,NE,45,3.5,3.5,43,0.00,CLR,,0.00,WeatherDisplay:10.37,2013-09-19 00:03:00,
2013-09-18 17:08:00,67.5,44.2,29.96,NW,315,4.6,4.6,43,0.00,CLR,,0.00,WeatherDisplay:10.37,2013-09-19 00:08:00,
2013-09-18 17:13:00,67.1,43.8,29.95,North,0,11.5,11.5,43,0.00,CLR,,0.00,WeatherDisplay:10.37,2013-09-19 00:13:00,
2013-09-18 17:18:00,67.1,43.8,29.96,West,270,6.9,6.9,43,0.00,CLR,,0.00,WeatherDisplay:10.37,2013-09-19 00:18:00,
2013-09-18 17:23:00,67.3,44.0,29.95,West,270,2.3,2.3,43,0.00,CLR,,0.00,WeatherDisplay:10.37,2013-09-19 00:23:00,
2013-09-18 17:28:00,67.1,43.8,29.96,North,0,6.9,6.9,43,0.00,CLR,,0.00,WeatherDisplay:10.37,2013-09-19 00:28:00,
2013-09-18 17:34:00,67.3,44.6,29.96,NW,315,6.9,6.9,44,0.00,CLR,,0.00,WeatherDisplay:10.37,2013-09-19 00:34:00,
2013-09-18 17:39:00,67.6,43.7,29.96,NE,45,3.5,0.0,42,0.00,CLR,,0.00,WeatherDisplay:10.37,2013-09-19 00:39:00,
2013-09-18 17:44:00,67.3,44.0,29.96,East,90,2.3,2.3,43,0.00,CLR,,0.00,WeatherDisplay:10.37,2013-09-19 00:44:00,
2013-09-18 17:49:00,66.7,44.1,29.96,SW,225,3.5,0.0,44,0.00,CLR,,0.00,WeatherDisplay:10.37,2013-09-19 00:49:00,
2013-09-18 17:54:00,66.7,44.7,29.96,East,90,4.6,4.6,45,0.00,CLR,,0.00,WeatherDisplay:10.37,2013-09-19 00:54:00,
2013-09-18 17:59:00,66.7,44.7,29.96,NW,315,5.8,5.8,45,0.00,CLR,,0.00,WeatherDisplay:10.37,2013-09-19 00:59:00,
2013-09-18 18:04:00,66.7,44.7,29.96,NE,45,2.3,2.3,45,0.00,CLR,,0.00,WeatherDisplay:10.37,2013-09-19 01:04:00,
2013-09-18 18:10:00,66.9,44.9,29.96,NE,45,2.3,0.0,45,0.00,CLR,,0.00,WeatherDisplay:10.37,2013-09-19 01:10:00,
2013-09-18 18:15:00,66.6,44.0,29.95,West,270,5.8,5.8,44,0.00,CLR,,0.00,WeatherDisplay:10.37,2013-09-19 01:15:00,
2013-09-18 18:20:00,66.2,44.2,29.95,West,270,2.3,2.3,45,0.00,CLR,,0.00,WeatherDisplay:10.37,2013-09-19 01:20:00,
2013-09-18 18:25:00,66.2,44.2,29.95,SE,135,1.2,0.0,45,0.00,CLR,,0.00,WeatherDisplay:10.37,2013-09-19 01:25:00,
2013-09-18 18:30:00,65.8,44.5,29.95,NW,315,5.8,5.8,46,0.00,CLR,,0.00,WeatherDisplay:10.37,2013-09-19 01:30:00,
2013-09-18 18:35:00,65.5,44.1,29.95,NW,315,5.8,5.8,46,0.00,CLR,,0.00,WeatherDisplay:10.37,2013-09-19 01:35:00,
2013-09-18 18:40:00,65.1,44.4,29.95,NW,315,3.5,3.5,47,0.00,CLR,,0.00,WeatherDisplay:10.37,2013-09-19 01:40:00,
2013-09-18 18:45:00,64.8,44.6,29.95,SW,225,6.9,0.0,48,0.00,CLR,,0.00,WeatherDisplay:10.37,2013-09-19 01:45:00,
2013-09-18 18:50:00,64.4,44.3,29.95,West,270,3.5,3.5,48,0.00,CLR,,0.00,WeatherDisplay:10.37,2013-09-19 01:50:00,
2013-09-18 18:55:00,64.0,44.5,29.94,West,270,4.6,4.6,49,0.00,CLR,,0.00,WeatherDisplay:10.37,2013-09-19 01:55:00,
2013-09-18 19:01:00,63.7,44.7,29.94,West,270,1.2,1.2,50,0.00,CLR,,0.00,WeatherDisplay:10.37,2013-09-19 02:01:00,
2013-09-18 19:06:00,63.1,45.7,29.95,SW,225,3.5,3.5,53,0.00,CLR,,0.00,WeatherDisplay:10.37,2013-09-19 02:06:00,
2013-09-18 19:11:00,62.4,45.5,29.95,South,180,2.3,2.3,54,0.00,CLR,,0.00,WeatherDisplay:10.37,2013-09-19 02:11:00,
2013-09-18 19:16:00,61.7,45.8,29.95,SW,225,2.3,2.3,56,0.00,CLR,,0.00,WeatherDisplay:10.37,2013-09-19 02:16:00,
2013-09-18 19:21:00,61.0,45.2,29.95,West,270,1.2,1.2,56,0.00,CLR,,0.00,WeatherDisplay:10.37,2013-09-19 02:21:00,
2013-09-18 19:26:00,60.8,45.0,29.95,West,270,1.2,1.2,56,0.00,CLR,,0.00,WeatherDisplay:10.37,2013-09-19 02:26:00,
2013-09-18 19:31:00,60.4,45.6,29.95,SW,225,3.1,3.1,58,0.00,CLR,,0.00,WeatherDisplay:10.37,2013-09-19 02:31:00,
2013-09-18 19:36:00,59.9,45.5,29.95,SW,225,2.3,2.3,59,0.00,CLR,,0.00,WeatherDisplay:10.37,2013-09-19 02:36:00,
2013-09-18 19:41:00,59.4,46.3,29.95,SW,225,2.3,2.3,62,0.00,CLR,,0.00,WeatherDisplay:10.37,2013-09-19 02:41:00,
2013-09-18 19:46:00,59.0,46.4,29.95,SW,225,3.5,3.5,63,0.00,CLR,,0.00,WeatherDisplay:10.37,2013-09-19 02:46:00,
2013-09-18 19:51:00,58.5,46.3,29.95,SW,225,3.5,3.5,64,0.00,CLR,,0.00,WeatherDisplay:10.37,2013-09-19 02:51:00,
2013-09-18 19:56:00,57.9,46.2,29.95,SW,225,1.2,2.2,65,0.00,CLR,,0.00,WeatherDisplay:10.37,2013-09-19 02:56:00,
2013-09-18 20:01:00,57.6,46.3,29.95,SW,225,3.5,3.5,66,0.00,CLR,,0.00,WeatherDisplay:10.37,2013-09-19 03:01:00,
2013-09-18 20:06:00,57.4,46.1,29.95,SW,225,1.6,0.0,66,0.00,CLR,,0.00,WeatherDisplay:10.37,2013-09-19 03:06:00,
2013-09-18 20:11:00,57.2,46.3,29.95,SW,225,1.2,0.0,67,0.00,CLR,,0.00,WeatherDisplay:10.37,2013-09-19 03:11:00,
2013-09-18 20:16:00,56.8,46.0,29.95,SW,225,1.2,0.0,67,0.00,CLR,,0.00,WeatherDisplay:10.37,2013-09-19 03:16:00,
2013-09-18 20:21:00,56.5,46.4,29.95,SW,225,1.2,0.0,69,0.00,CLR,,0.00,WeatherDisplay:10.37,2013-09-19 03:21:00,
2013-09-18 20:26:00,56.3,48.5,29.96,SW,225,3.5,3.5,75,0.00,CLR,,0.00,WeatherDisplay:10.37,2013-09-19 03:26:00,
2013-09-18 20:31:00,56.1,45.7,29.96,SW,225,1.2,0.0,68,0.00,CLR,,0.00,WeatherDisplay:10.37,2013-09-19 03:31:00,
2013-09-18 20:36:00,55.9,45.5,29.96,SW,225,1.2,0.0,68,0.00,CLR,,0.00,WeatherDisplay:10.37,2013-09-19 03:36:00,
2013-09-18 20:41:00,55.8,45.4,29.96,SW,225,3.5,3.5,68,0.00,CLR,,0.00,WeatherDisplay:10.37,2013-09-19 03:41:00,
2013-09-18 20:46:00,55.4,45.4,29.97,SW,225,2.3,2.3,69,0.00,CLR,,0.00,WeatherDisplay:10.37,2013-09-19 03:46:00,
2013-09-18 20:51:00,55.2,45.2,29.96,SW,225,2.3,2.3,69,0.00,CLR,,0.00,WeatherDisplay:10.37,2013-09-19 03:51:00,
2013-09-18 20:56:00,55.0,45.4,29.97,South,180,2.3,2.3,70,0.00,CLR,,0.00,WeatherDisplay:10.37,2013-09-19 03:56:00,
2013-09-18 21:01:00,54.9,45.3,29.97,South,180,2.3,0.0,70,0.00,CLR,,0.00,WeatherDisplay:10.37,2013-09-19 04:01:00,
2013-09-18 21:07:00,54.5,44.9,29.97,SW,225,1.2,0.0,70,0.00,CLR,,0.00,WeatherDisplay:10.37,2013-09-19 04:07:00,
2013-09-18 21:08:00,54.3,44.7,29.97,SW,225,0.0,0.0,70,0.00,CLR,,0.00,WeatherDisplay:10.37,2013-09-19 04:08:00,
2013-09-18 21:13:00,54.1,44.6,29.97,SW,225,0.0,0.0,70,0.00,CLR,,0.00,WeatherDisplay:10.37,2013-09-19 04:13:00,
2013-09-18 21:18:00,54.1,44.9,29.97,SW,225,2.3,0.0,71,0.00,CLR,,0.00,WeatherDisplay:10.37,2013-09-19 04:18:00,
2013-09-18 21:23:00,54.0,44.8,29.96,SW,225,1.2,0.0,71,0.00,CLR,,0.00,WeatherDisplay:10.37,2013-09-19 04:23:00,
2013-09-18 21:28:00,53.8,44.6,29.96,South,180,1.2,0.0,71,0.00,CLR,,0.00,WeatherDisplay:10.37,2013-09-19 04:28:00,
2013-09-18 21:33:00,53.6,44.4,29.97,South,180,0.0,0.0,71,0.00,CLR,,0.00,WeatherDisplay:10.37,2013-09-19 04:33:00,
2013-09-18 21:38:00,53.4,44.2,29.96,SW,225,1.2,0.0,71,0.00,CLR,,0.00,WeatherDisplay:10.37,2013-09-19 04:38:00,
2013-09-18 21:43:00,53.2,44.1,29.96,South,180,0.0,0.0,71,0.00,CLR,,0.00,WeatherDisplay:10.37,2013-09-19 04:43:00,
2013-09-18 21:48:00,53.1,43.9,29.96,South,180,0.0,0.0,71,0.00,CLR,,0.00,WeatherDisplay:10.37,2013-09-19 04:48:00,
2013-09-18 21:53:00,52.7,43.6,29.96,South,180,0.7,0.0,71,0.00,CLR,,0.00,WeatherDisplay:10.37,2013-09-19 04:53:00,
2013-09-18 21:58:00,52.5,43.4,29.95,South,180,0.0,0.0,71,0.00,CLR,,0.00,WeatherDisplay:10.37,2013-09-19 04:58:00,
2013-09-18 22:03:00,52.3,43.2,29.95,South,180,1.2,0.0,71,0.00,CLR,,0.00,WeatherDisplay:10.37,2013-09-19 05:03:00,
2013-09-18 22:08:00,52.3,43.2,29.96,South,180,0.0,0.0,71,0.00,CLR,,0.00,WeatherDisplay:10.37,2013-09-19 05:08:00,
2013-09-18 22:13:00,52.3,43.2,29.96,South,180,0.0,0.0,71,0.00,CLR,,0.00,WeatherDisplay:10.37,2013-09-19 05:13:00,
2013-09-18 22:18:00,52.2,43.0,29.95,South,180,0.0,0.0,71,0.00,CLR,,0.00,WeatherDisplay:10.37,2013-09-19 05:18:00,
2013-09-18 22:23:00,52.0,42.9,29.95,South,180,0.0,0.0,71,0.00,CLR,,0.00,WeatherDisplay:10.37,2013-09-19 05:23:00,
2013-09-18 22:28:00,51.8,42.7,29.95,South,180,0.0,0.0,71,0.00,CLR,,0.00,WeatherDisplay:10.37,2013-09-19 05:28:00,
2013-09-18 22:33:00,51.6,42.5,29.95,South,180,0.0,0.0,71,0.00,CLR,,0.00,WeatherDisplay:10.37,2013-09-19 05:33:00,
2013-09-18 22:38:00,51.4,42.7,29.95,SW,225,0.0,0.0,72,0.00,CLR,,0.00,WeatherDisplay:10.37,2013-09-19 05:38:00,
2013-09-18 22:43:00,51.4,42.7,29.95,West,270,0.0,0.0,72,0.00,CLR,,0.00,WeatherDisplay:10.37,2013-09-19 05:43:00,
2013-09-18 22:48:00,51.1,42.0,29.95,West,270,0.0,0.0,71,0.00,CLR,,0.00,WeatherDisplay:10.37,2013-09-19 05:48:00,
2013-09-18 22:53:00,50.7,42.0,29.95,SW,225,0.0,0.0,72,0.00,CLR,,0.00,WeatherDisplay:10.37,2013-09-19 05:53:00,
2013-09-18 22:58:00,50.7,42.0,29.95,SW,225,1.2,0.0,72,0.00,CLR,,0.00,WeatherDisplay:10.37,2013-09-19 05:58:00,
2013-09-18 23:03:00,50.5,41.8,29.95,SW,225,1.2,0.0,72,0.00,CLR,,0.00,WeatherDisplay:10.37,2013-09-19 06:03:00,
2013-09-18 23:08:00,50.4,41.7,29.95,SW,225,0.0,0.0,72,0.00,CLR,,0.00,WeatherDisplay:10.37,2013-09-19 06:08:00,
2013-09-18 23:13:00,50.2,41.5,29.95,SW,225,1.2,0.0,72,0.00,CLR,,0.00,WeatherDisplay:10.37,2013-09-19 06:13:00,
2013-09-18 23:18:00,50.0,41.3,29.94,SW,225,0.0,0.0,72,0.00,CLR,,0.00,WeatherDisplay:10.37,2013-09-19 06:18:00,
2013-09-18 23:23:00,50.2,41.5,29.94,SW,225,0.0,0.0,72,0.00,CLR,,0.00,WeatherDisplay:10.37,2013-09-19 06:23:00,
2013-09-18 23:28:00,49.6,41.0,29.94,SW,225,0.0,0.0,72,0.00,CLR,,0.00,WeatherDisplay:10.37,2013-09-19 06:28:00,
2013-09-18 23:33:00,49.3,40.6,29.94,SW,225,0.0,0.0,72,0.00,CLR,,0.00,WeatherDisplay:10.37,2013-09-19 06:33:00,
2013-09-18 23:38:00,49.1,40.5,29.94,SW,225,0.0,0.0,72,0.00,CLR,,0.00,WeatherDisplay:10.37,2013-09-19 06:38:00,
2013-09-18 23:43:00,48.9,40.6,29.94,SW,225,1.2,0.0,73,0.00,CLR,,0.00,WeatherDisplay:10.37,2013-09-19 06:43:00,
2013-09-18 23:48:00,48.9,40.6,29.94,SW,225,0.0,0.0,73,0.00,CLR,,0.00,WeatherDisplay:10.37,2013-09-19 06:48:00,
2013-09-18 23:53:00,48.9,40.6,29.94,SW,225,0.0,0.0,73,0.00,CLR,,0.00,WeatherDisplay:10.37,2013-09-19 06:53:00,
2013-09-18 23:58:00,48.7,40.5,29.93,SW,225,1.2,0.0,73,0.00,CLR,,0.00,WeatherDisplay:10.37,2013-09-19 06:58:00,